Philadelphia, PA

6:34 PM EST on November 16, 2019 (GMT -0500)
Philadelphia International

Weather History for KPHL - September, 2019

Change the Weather History Date:

Monday, September 30, 2019

  Actual Average Record
Temperature  
Mean Temperature 69 °F 63 °F  
Max Temperature 75 °F 72 °F 88 °F (1881)
Min Temperature 62 °F 54 °F 38 °F (1942)
Degree Days  
Heating Degree Days 0 4  
Month to date heating degree days 2 35  
Since 1 July heating degree days 2 38  
Cooling Degree Days 4 2  
Month to date cooling degree days 236 161  
Year to date cooling degree days 1570 1278  
Growing Degree Days 18 (Base 50)    
Moisture  
Dew Point 54 °F    
Average Humidity 67    
Maximum Humidity 81    
Minimum Humidity 52    
Precipitation  
Precipitation 0.00 in 0.13 in 2.41 in (2010)
Month to date precipitation 1.16 3.78  
Year to date precipitation 37.19 31.80  
Snow  
Snow 0.00 in 0.00 in 0.00 in ()
Month to date snowfall 0.0 0.0  
Since 1 July snowfall 0.0 0.0  
Since 1 September snowfall 0.0 0.0  
Snow Depth 0.00 in    
Sea Level Pressure  
Sea Level Pressure 30.27 in    
Wind  
Wind Speed 7 mph (East)    
Max Wind Speed 14 mph    
Max Gust Speed 19 mph    
Visibility 10 miles    
Events      
T = Trace of Precipitation, MM = Missing Value Source: NWS Daily Summary

Daily Weather History Graph

Daily Weather History Graph

Search for Another Location

Airport or City:

Astronomy

Sep. 30, 2019 Rise Set
Actual Time 6:56 AM EDT 6:45 PM EDT
Civil Twilight 6:29 AM EDT 7:12 PM EDT
Nautical Twilight 5:57 AM EDT 7:43 PM EDT
Astronomical Twilight 5:25 AM EDT 8:15 PM EDT
Moon 8:57 AM EDT (9/30) 8:19 PM EDT (9/30)
Length of Visible Light 12h 43m
Length of Day
11h 49m
Waxing Crescent, 5% of the Moon is Illuminated
Sep 30
Waxing Crescent
Oct 5
First Quarter
Oct 13
Full
Oct 21
Last Quarter
Oct 27
New

Hourly Weather History & Observations

Time (EDT) Temp. Dew Point Humidity Pressure Visibility Wind Dir Wind Speed Gust Speed Precip Events Conditions
12:54 AM 66.9 °F 61.0 °F 81% 30.28 in 10.0 mi ENE 3.5 mph - N/A   Overcast
1:54 AM 66.0 °F 61.0 °F 84% 30.28 in 10.0 mi ENE 4.6 mph - N/A   Overcast
2:54 AM 66.9 °F 60.1 °F 79% 30.27 in 10.0 mi NE 4.6 mph - N/A   Overcast
3:54 AM 64.0 °F 48.9 °F 58% 30.27 in 10.0 mi NE 4.6 mph - N/A   Overcast
4:54 AM 64.0 °F 46.9 °F 54% 30.29 in 10.0 mi NE 6.9 mph - N/A   Overcast
5:14 AM 64.0 °F 46.9 °F 54% 30.29 in 10.0 mi NE 5.8 mph - N/A   Mostly Cloudy
5:34 AM 64.0 °F 46.9 °F 54% 30.29 in 10.0 mi ENE 5.8 mph - N/A   Mostly Cloudy
5:54 AM 62.1 °F 48.0 °F 60% 30.28 in 10.0 mi NE 4.6 mph - N/A   Mostly Cloudy
6:54 AM 64.9 °F 48.9 °F 56% 30.29 in 10.0 mi ENE 6.9 mph - N/A   Mostly Cloudy
7:03 AM 64.0 °F 48.9 °F 58% 30.29 in 10.0 mi ENE 6.9 mph - N/A   Mostly Cloudy
7:54 AM 64.9 °F 50.0 °F 58% 30.30 in 10.0 mi ENE 6.9 mph - N/A   Mostly Cloudy
8:08 AM 64.9 °F 51.1 °F 61% 30.29 in 10.0 mi ENE 9.2 mph - N/A   Overcast
8:54 AM 66.0 °F 53.1 °F 63% 30.31 in 10.0 mi ENE 6.9 mph - N/A   Overcast
9:54 AM 68.0 °F 55.9 °F 65% 30.31 in 10.0 mi East 6.9 mph - N/A   Overcast
10:54 AM 70.0 °F 55.9 °F 61% 30.31 in 10.0 mi East 9.2 mph - N/A   Overcast
11:54 AM 73.0 °F 55.9 °F 55% 30.30 in 10.0 mi ESE 8.1 mph - N/A   Overcast
12:54 PM 73.0 °F 55.0 °F 53% 30.28 in 10.0 mi ESE 8.1 mph - N/A   Overcast
1:54 PM 73.0 °F 55.0 °F 53% 30.25 in 10.0 mi SE 9.2 mph - N/A   Overcast
2:54 PM 72.0 °F 55.9 °F 57% 30.25 in 10.0 mi ESE 12.7 mph - N/A   Overcast
3:54 PM 71.1 °F 55.9 °F 59% 30.24 in 10.0 mi SE 12.7 mph - N/A   Overcast
4:54 PM 70.0 °F 55.9 °F 61% 30.22 in 10.0 mi SE 10.4 mph - N/A   Overcast
5:54 PM 68.0 °F 55.0 °F 63% 30.23 in 10.0 mi SE 11.5 mph - N/A   Overcast
6:54 PM 66.9 °F 55.0 °F 66% 30.23 in 10.0 mi SE 9.2 mph - N/A   Overcast
7:54 PM 66.0 °F 55.0 °F 68% 30.22 in 10.0 mi SE 9.2 mph - N/A   Overcast
8:54 PM 66.0 °F 55.0 °F 68% 30.23 in 10.0 mi ESE 6.9 mph - N/A   Overcast
9:54 PM 66.0 °F 55.9 °F 70% 30.23 in 10.0 mi ESE 5.8 mph - N/A   Overcast
10:54 PM 66.0 °F 55.9 °F 70% 30.23 in 10.0 mi East 5.8 mph - N/A   Overcast
11:54 PM 64.9 °F 55.0 °F 70% 30.22 in 10.0 mi ESE 5.8 mph - N/A   Overcast